When you browse on this site, cookies collect data to enhance your experience and personalize the content and advertising you see.
Visit our Privacy Policy to learn more. By continuing to use the site, you agree to this use of cookies and data.
  • In Czech Republic
  • List of Countries
  • For 7 days
  • Water Temperature
  • Satellite Maps
  • Weather Map
  • Weather Widgets
  • user-avatar
    Login

    Hourly Weather Alhaurin de la Torre

    Today, 21 January, Monday

    Time Temperature Precipitation Wind Pressure Humidity
    00:00 +8°C° 0 mm 4 mps 757 mmHg 76%
    01:00 +8°C° 0 mm 4 mps 757 mmHg 76%
    02:00 +8°C° 0 mm 4 mps 757 mmHg 76%
    03:00 +7°C° 0 mm 4 mps 757 mmHg 75%
    04:00 +7°C° 0 mm 4 mps 757 mmHg 75%
    05:00 +7°C° 0 mm 4 mps 757 mmHg 74%
    06:00 +6°C° 0 mm 4 mps 758 mmHg 73%
    07:00 +7°C° 0 mm 4 mps 758 mmHg 71%
    08:00 +8°C° 0 mm 4 mps 758 mmHg 68%
    09:00 +8°C° 0 mm 4 mps 758 mmHg 65%
    10:00 +11°C° 0 mm 4 mps 758 mmHg 57%
    11:00 +13°C° 0 mm 3 mps 758 mmHg 49%
    12:00 +14°C° 0 mm 3 mps 758 mmHg 41%
    13:00 +14°C° 0 mm 3 mps 758 mmHg 41%
    14:00 +15°C° 0 mm 4 mps 758 mmHg 40%
    15:00 +15°C° 0 mm 4 mps 758 mmHg 40%
    16:00 +13°C° 0 mm 4 mps 758 mmHg 45%
    17:00 +12°C° 0 mm 4 mps 758 mmHg 50%
    18:00 +10°C° 0 mm 4 mps 759 mmHg 55%
    19:00 +10°C° 0 mm 4 mps 759 mmHg 56%
    20:00 +8°C° 0 mm 4 mps 759 mmHg 57%
    21:00 +8°C° 0 mm 4 mps 760 mmHg 59%
    22:00 +8°C° 0 mm 3 mps 760 mmHg 59%
    23:00 +8°C° 0 mm 3 mps 760 mmHg 60%

    Tomorrow, 22 January, Tuesday

    Time Temperature Precipitation Wind Pressure Humidity
    00:00 +8°C° 0 mm 3 mps 760 mmHg 60%
    01:00 +8°C° 0 mm 3 mps 760 mmHg 61%
    02:00 +7°C° 0 mm 3 mps 760 mmHg 62%
    03:00 +7°C° 0 mm 3 mps 760 mmHg 63%
    04:00 +7°C° 0 mm 3 mps 760 mmHg 63%
    05:00 +7°C° 0 mm 3 mps 759 mmHg 63%
    06:00 +7°C° 0 mm 3 mps 759 mmHg 64%
    07:00 +8°C° 0 mm 3 mps 759 mmHg 62%
    08:00 +9°C° 0 mm 3 mps 759 mmHg 61%
    09:00 +10°C° 0 mm 3 mps 759 mmHg 59%
    10:00 +11°C° 0 mm 3 mps 759 mmHg 53%
    11:00 +13°C° 0 mm 4 mps 759 mmHg 47%
    12:00 +14°C° 0 mm 4 mps 759 mmHg 42%
    13:00 +14°C° 0 mm 5 mps 758 mmHg 42%
    14:00 +14°C° 0 mm 5 mps 757 mmHg 42%
    15:00 +14°C° 0 mm 5 mps 756 mmHg 42%
    16:00 +13°C° 0 mm 5 mps 756 mmHg 51%
    17:00 +12°C° 0 mm 5 mps 756 mmHg 60%
    18:00 +10°C° 0 mm 5 mps 756 mmHg 69%
    19:00 +10°C° 0 mm 5 mps 756 mmHg 72%
    20:00 +10°C° 0 mm 5 mps 756 mmHg 75%
    21:00 +10°C° 0 mm 5 mps 756 mmHg 79%
    22:00 +10°C° 0 mm 5 mps 756 mmHg 79%
    23:00 +9°C° 0 mm 5 mps 756 mmHg 79%

    Day after tomorrow, 23 January, Wednesday

    Time Temperature Precipitation Wind Pressure Humidity
    00:00 +9°C° 0 mm 5 mps 756 mmHg 80%
    01:00 +9°C° 0 mm 5 mps 756 mmHg 78%
    02:00 +9°C° 0 mm 5 mps 756 mmHg 77%
    03:00 +8°C° 0 mm 5 mps 756 mmHg 76%
    04:00 +8°C° 0 mm 5 mps 756 mmHg 76%
    05:00 +8°C° 0 mm 4 mps 756 mmHg 75%
    06:00 +7°C° 0 mm 4 mps 756 mmHg 75%
    07:00 +8°C° 0 mm 4 mps 757 mmHg 73%
    08:00 +8°C° 0 mm 5 mps 757 mmHg 70%
    09:00 +8°C° 0 mm 5 mps 757 mmHg 68%
    10:00 +10°C° 0 mm 5 mps 757 mmHg 63%
    11:00 +12°C° 0 mm 5 mps 756 mmHg 58%
    12:00 +14°C° 0 mm 6 mps 756 mmHg 53%
    13:00 +14°C° 0 mm 6 mps 755 mmHg 56%
    14:00 +13°C° 0 mm 6 mps 755 mmHg 59%
    15:00 +12°C° 0 mm 7 mps 754 mmHg 61%
    16:00 +13°C° 0 mm 6 mps 754 mmHg 64%
    17:00 +13°C° 0 mm 6 mps 754 mmHg 67%
    18:00 +11°C° 0 mm 6 mps 754 mmHg 69%
    19:00 +11°C° 0 mm 6 mps 754 mmHg 72%
    20:00 +10°C° 0 mm 5 mps 755 mmHg 74%
    21:00 +10°C° 0 mm 5 mps 755 mmHg 77%
    22:00 +10°C° 0 mm 5 mps 755 mmHg 78%
    23:00 +10°C° 0 mm 4 mps 755 mmHg 79%

    24 January, Thursday

    Time Temperature Precipitation Wind Pressure Humidity
    00:00 +10°C° 0 mm 4 mps 754 mmHg 80%
    01:00 +10°C° 0 mm 4 mps 754 mmHg 79%
    02:00 +11°C° 0 mm 4 mps 753 mmHg 78%
    03:00 +11°C° 0 mm 4 mps 753 mmHg 77%
    04:00 +11°C° 0 mm 4 mps 753 mmHg 78%
    05:00 +11°C° 0 mm 4 mps 752 mmHg 78%
    06:00 +12°C° 0 mm 3 mps 752 mmHg 79%
    07:00 +12°C° 0 mm 4 mps 752 mmHg 79%
    08:00 +12°C° 0 mm 4 mps 753 mmHg 78%
    09:00 +13°C° 0 mm 4 mps 753 mmHg 78%
    10:00 +14°C° 0 mm 4 mps 753 mmHg 72%
    11:00 +15°C° 0 mm 4 mps 753 mmHg 66%
    12:00 +17°C° 0 mm 4 mps 753 mmHg 60%
    13:00 +16°C° 0 mm 5 mps 752 mmHg 58%
    14:00 +16°C° 0 mm 5 mps 752 mmHg 56%
    15:00 +16°C° 0 mm 6 mps 752 mmHg 54%
    16:00 +15°C° 0 mm 5 mps 752 mmHg 55%
    17:00 +14°C° 0 mm 5 mps 753 mmHg 55%
    18:00 +12°C° 0 mm 4 mps 753 mmHg 56%
    19:00 +10°C° 0 mm 5 mps 754 mmHg 55%
    20:00 +9°C° 0 mm 5 mps 755 mmHg 54%
    21:00 +8°C° 0 mm 5 mps 756 mmHg 53%
    22:00 +8°C° 0 mm 4 mps 756 mmHg 51%
    23:00 +7°C° 0 mm 4 mps 756 mmHg 50%

    25 January, Friday

    Time Temperature Precipitation Wind Pressure Humidity
    00:00 +7°C° 0 mm 3 mps 757 mmHg 48%
    01:00 +7°C° 0 mm 3 mps 757 mmHg 47%
    02:00 +6°C° 0 mm 2 mps 757 mmHg 45%
    03:00 +6°C° 0 mm 2 mps 757 mmHg 44%
    04:00 +6°C° 0 mm 2 mps 757 mmHg 42%
    05:00 +6°C° 0 mm 2 mps 757 mmHg 40%
    06:00 +4°C° 0 mm 3 mps 758 mmHg 38%
    07:00 +5°C° 0 mm 3 mps 758 mmHg 37%
    08:00 +7°C° 0 mm 3 mps 758 mmHg 37%
    09:00 +8°C° 0 mm 3 mps 759 mmHg 37%
    10:00 +10°C° 0 mm 2 mps 759 mmHg 34%
    11:00 +13°C° 0 mm 2 mps 759 mmHg 32%
    12:00 +15°C° 0 mm 1 mps 759 mmHg 30%
    13:00 +15°C° 0 mm 1 mps 759 mmHg 30%
    14:00 +15°C° 0 mm 1 mps 758 mmHg 29%
    15:00 +16°C° 0 mm 1 mps 758 mmHg 29%
    16:00 +14°C° 0 mm 1 mps 758 mmHg 33%
    17:00 +13°C° 0 mm 1 mps 758 mmHg 38%
    18:00 +11°C° 0 mm 1 mps 759 mmHg 43%
    19:00 +10°C° 0 mm 1 mps 759 mmHg 43%
    20:00 +10°C° 0 mm 1 mps 759 mmHg 43%
    21:00 +9°C° 0 mm 1 mps 760 mmHg 43%
    22:00 +9°C° 0 mm 1 mps 760 mmHg 42%
    23:00 +9°C° 0 mm 1 mps 760 mmHg 40%

    26 January, Saturday

    Time Temperature Precipitation Wind Pressure Humidity
    00:00 +9°C° 0 mm 1 mps 760 mmHg 39%
    01:00 +9°C° 0 mm 1 mps 760 mmHg 38%
    02:00 +9°C° 0 mm 1 mps 759 mmHg 36%
    03:00 +9°C° 0 mm 1 mps 759 mmHg 35%
    04:00 +9°C° 0 mm 1 mps 759 mmHg 35%
    05:00 +9°C° 0 mm 1 mps 759 mmHg 35%
    06:00 +8°C° 0 mm 2 mps 759 mmHg 35%
    07:00 +10°C° 0 mm 1 mps 759 mmHg 36%
    08:00 +11°C° 0 mm 1 mps 760 mmHg 38%
    09:00 +12°C° 0 mm 1 mps 760 mmHg 40%
    10:00 +14°C° 0 mm 1 mps 760 mmHg 37%
    11:00 +16°C° 0 mm 1 mps 760 mmHg 34%
    12:00 +19°C° 0 mm 1 mps 759 mmHg 32%
    13:00 +19°C° 0 mm 1 mps 759 mmHg 33%
    14:00 +18°C° 0 mm 2 mps 758 mmHg 35%
    15:00 +18°C° 0 mm 2 mps 758 mmHg 36%
    16:00 +17°C° 0 mm 2 mps 757 mmHg 44%
    17:00 +15°C° 0 mm 2 mps 757 mmHg 51%
    18:00 +13°C° 0 mm 2 mps 757 mmHg 59%
    19:00 +12°C° 0 mm 3 mps 757 mmHg 59%
    20:00 +11°C° 0 mm 3 mps 757 mmHg 60%
    21:00 +11°C° 0 mm 3 mps 757 mmHg 60%
    22:00 +11°C° 0 mm 3 mps 757 mmHg 61%
    23:00 +10°C° 0 mm 3 mps 757 mmHg 61%
    Show more